Location: Buckeye Ditch
(40.9104°N, 122.9517°W)
Time: 12:44:45
(UTC+00:00)

deb Explorer IX - Visible Passes

Search period start: 18 May 2025 00:00
Search period end: 28 May 2025 00:00
Orbit: 386 x 450 km, 38.6° (Epoch: 05 May)

Date Brightness Start Highest point End Pass type
(mag) Time Alt. Az. Time Alt. Az. Time Alt. Az.
20 May ? 12:07:16 10° SSW 12:09:22 17° SSE 12:11:28 10° ESE visible
22 May ? 11:31:35 18° S 11:32:41 22° SSE 11:35:08 10° ESE visible
23 May ? 11:58:09 12° SW 12:00:42 39° SSE 12:03:34 10° E visible
24 May ? 10:52:01 25° SE 10:52:01 25° SE 10:54:10 10° E visible
25 May ? 11:16:21 33° SW 11:17:15 44° S 11:20:10 10° E visible
26 May ? 10:08:09 13° ESE 10:08:09 13° ESE 10:08:38 10° E visible
26 May ? 11:39:34 16° WSW 11:41:50 55° S 11:44:48 10° E visible
27 May ? 10:30:22 31° ESE 10:30:22 31° ESE 10:32:15 10° E visible
27 May ? 12:02:15 10° W 12:05:15 49° S 12:08:09 10° ESE visible
